TimeCST,TemperatureF,Dew PointF,Humidity,Sea Level PressureIn,VisibilityMPH,Wind Direction,Wind SpeedMPH,Gust SpeedMPH,PrecipitationIn,Events,Conditions,WindDirDegrees,DateUTC
12:15 AM,63.5,32.0,31,30.27,10.0,North,6.9,-,N/A,,Overcast,10,2012-11-15 06:15:00
12:35 AM,63.3,33.3,33,30.26,7.0,North,4.6,-,N/A,,Overcast,10,2012-11-15 06:35:00
12:55 AM,63.3,34.2,34,30.26,7.0,North,4.6,-,N/A,,Overcast,360,2012-11-15 06:55:00
1:15 AM,63.1,34.5,34,30.25,7.0,North,5.8,-,N/A,,Overcast,10,2012-11-15 07:15:00
1:35 AM,63.1,33.8,33,30.24,7.0,NNE,6.9,-,N/A,,Overcast,20,2012-11-15 07:35:00
1:55 AM,63.1,32.9,32,30.23,7.0,NNE,4.6,-,N/A,,Overcast,20,2012-11-15 07:55:00
2:15 AM,63.0,32.2,32,30.23,10.0,NNE,5.8,-,N/A,,Overcast,20,2012-11-15 08:15:00
2:35 AM,62.8,32.9,33,30.22,7.0,North,5.8,-,N/A,,Overcast,10,2012-11-15 08:35:00
2:55 AM,62.8,32.9,33,30.21,10.0,NNE,5.8,-,N/A,,Overcast,20,2012-11-15 08:55:00
3:15 AM,62.8,33.8,34,30.21,7.0,North,5.8,-,N/A,,Overcast,10,2012-11-15 09:15:00
3:35 AM,62.6,34.2,35,30.21,7.0,North,6.9,-,N/A,,Overcast,350,2012-11-15 09:35:00
3:55 AM,62.6,34.0,34,30.22,7.0,North,6.9,-,N/A,,Overcast,350,2012-11-15 09:55:00
4:15 AM,62.6,34.9,36,30.21,7.0,North,4.6,-,N/A,,Overcast,360,2012-11-15 10:15:00
4:55 AM,62.6,36.0,37,30.20,7.0,North,6.9,-,N/A,,Overcast,360,2012-11-15 10:55:00
5:15 AM,62.6,36.1,37,30.21,10.0,North,6.9,-,N/A,,Overcast,350,2012-11-15 11:15:00
5:35 AM,62.6,36.5,38,30.20,10.0,North,6.9,-,N/A,,Overcast,10,2012-11-15 11:35:00
5:55 AM,62.6,36.7,38,30.20,7.0,NNE,6.9,-,N/A,,Overcast,20,2012-11-15 11:55:00
6:15 AM,62.6,37.4,39,30.20,7.0,NNE,5.8,-,N/A,,Overcast,20,2012-11-15 12:15:00
6:35 AM,62.4,37.8,40,30.21,7.0,North,6.9,-,N/A,,Overcast,10,2012-11-15 12:35:00
6:55 AM,62.1,38.3,41,30.21,10.0,NNE,6.9,-,N/A,,Overcast,20,2012-11-15 12:55:00
7:15 AM,62.2,38.1,41,30.22,7.0,NNE,5.8,-,N/A,,Overcast,20,2012-11-15 13:15:00
7:35 AM,62.8,38.3,40,30.23,7.0,North,8.1,-,N/A,,Overcast,10,2012-11-15 13:35:00
7:55 AM,63.5,38.3,39,30.23,7.0,North,9.2,-,N/A,,Overcast,10,2012-11-15 13:55:00
8:15 AM,63.7,38.7,40,30.24,7.0,North,9.2,-,N/A,,Overcast,10,2012-11-15 14:15:00
8:35 AM,64.4,39.0,39,30.24,5.0,NNE,11.5,-,N/A,,Haze,20,2012-11-15 14:35:00
8:55 AM,64.6,39.6,40,30.24,7.0,NNE,10.4,-,N/A,,Overcast,30,2012-11-15 14:55:00
9:15 AM,65.3,40.5,40,30.25,7.0,NNE,9.2,-,N/A,,Overcast,20,2012-11-15 15:15:00
9:35 AM,65.7,41.4,41,30.25,7.0,NNE,9.2,-,N/A,,Overcast,20,2012-11-15 15:35:00
9:55 AM,66.7,42.4,41,30.25,7.0,NNE,5.8,-,N/A,,Overcast,30,2012-11-15 15:55:00
10:15 AM,67.5,43.0,41,30.25,7.0,NNE,8.1,-,N/A,,Overcast,20,2012-11-15 16:15:00
10:35 AM,67.8,43.5,41,30.25,7.0,North,9.2,-,N/A,,Overcast,10,2012-11-15 16:35:00
10:55 AM,68.0,44.4,43,30.25,7.0,NNE,8.1,-,N/A,,Overcast,20,2012-11-15 16:55:00
11:15 AM,68.2,44.6,43,30.24,7.0,NNE,8.1,-,N/A,,Overcast,20,2012-11-15 17:15:00
11:35 AM,68.9,45.0,42,30.24,7.0,North,8.1,-,N/A,,Overcast,10,2012-11-15 17:35:00
11:55 AM,69.3,45.7,43,30.23,7.0,NNE,8.1,-,N/A,,Overcast,30,2012-11-15 17:55:00
12:15 PM,70.2,46.6,43,30.21,7.0,NNE,9.2,-,N/A,,Overcast,30,2012-11-15 18:15:00
12:35 PM,70.0,48.4,46,30.20,5.0,ENE,8.1,-,N/A,,Haze,60,2012-11-15 18:35:00
12:55 PM,70.7,50.2,48,30.20,7.0,ENE,8.1,-,N/A,,Overcast,60,2012-11-15 18:55:00
1:15 PM,70.7,50.9,49,30.19,7.0,NE,6.9,-,N/A,,Overcast,40,2012-11-15 19:15:00
1:35 PM,71.2,52.2,51,30.18,7.0,NE,6.9,-,N/A,,Overcast,40,2012-11-15 19:35:00
1:55 PM,72.1,53.6,52,30.17,7.0,ENE,6.9,-,N/A,,Overcast,60,2012-11-15 19:55:00
2:15 PM,72.5,55.0,54,30.16,7.0,NE,8.1,-,N/A,,Overcast,50,2012-11-15 20:15:00
2:35 PM,72.7,56.3,56,30.15,7.0,East,6.9,-,N/A,,Overcast,80,2012-11-15 20:35:00
2:55 PM,72.9,57.6,59,30.15,7.0,East,8.1,-,N/A,,Overcast,80,2012-11-15 20:55:00
3:15 PM,72.9,58.1,60,30.15,7.0,ENE,6.9,-,N/A,,Overcast,60,2012-11-15 21:15:00
3:35 PM,72.7,59.2,62,30.15,5.0,East,8.1,-,N/A,,Haze,90,2012-11-15 21:35:00
3:55 PM,72.5,59.4,63,30.14,7.0,ENE,8.1,-,N/A,,Overcast,70,2012-11-15 21:55:00
4:15 PM,71.6,60.1,67,30.15,5.0,East,9.2,-,N/A,,Haze,100,2012-11-15 22:15:00
4:35 PM,71.1,60.4,69,30.15,5.0,East,8.1,-,N/A,,Haze,90,2012-11-15 22:35:00
4:55 PM,70.7,61.0,71,30.15,5.0,East,9.2,-,N/A,,Haze,90,2012-11-15 22:55:00
5:15 PM,70.2,61.2,73,30.17,7.0,East,6.9,-,N/A,,Overcast,80,2012-11-15 23:15:00
5:55 PM,69.8,61.7,75,30.18,7.0,ENE,8.1,-,N/A,,Overcast,70,2012-11-15 23:55:00
6:15 PM,69.4,61.7,76,30.18,7.0,ENE,8.1,-,N/A,,Overcast,60,2012-11-16 00:15:00
6:55 PM,69.1,61.9,78,30.19,10.0,ENE,5.8,-,N/A,,Overcast,70,2012-11-16 00:55:00
7:35 PM,69.1,61.9,78,30.20,7.0,NE,4.6,-,N/A,,Overcast,50,2012-11-16 01:35:00
7:55 PM,69.3,62.1,78,30.21,7.0,NE,3.5,-,N/A,,Overcast,50,2012-11-16 01:55:00
8:15 PM,69.3,61.9,77,30.21,7.0,NE,3.5,-,N/A,,Overcast,40,2012-11-16 02:15:00
8:35 PM,69.3,61.9,77,30.21,7.0,NNE,4.6,-,N/A,,Overcast,20,2012-11-16 02:35:00
8:55 PM,69.3,61.7,77,30.21,10.0,North,5.8,-,N/A,,Overcast,10,2012-11-16 02:55:00
9:15 PM,68.9,60.8,75,30.22,7.0,North,5.8,-,N/A,,Overcast,360,2012-11-16 03:15:00
9:35 PM,68.0,61.0,78,30.22,10.0,North,4.6,-,N/A,,Light Drizzle,360,2012-11-16 03:35:00
9:55 PM,67.5,61.2,80,30.23,10.0,NNW,5.8,-,N/A,,Light Drizzle,330,2012-11-16 03:55:00
10:15 PM,67.3,61.0,80,30.23,7.0,North,4.6,-,N/A,Rain,Rain,350,2012-11-16 04:15:00
10:35 PM,66.6,61.7,84,30.22,7.0,NNW,4.6,-,N/A,,Light Drizzle,340,2012-11-16 04:35:00
10:55 PM,66.2,61.7,85,30.22,7.0,North,3.5,-,N/A,,Overcast,360,2012-11-16 04:55:00
11:15 PM,66.2,61.7,85,30.21,7.0,North,4.6,-,N/A,,Overcast,360,2012-11-16 05:15:00
11:35 PM,66.2,61.3,84,30.21,7.0,North,4.6,-,N/A,,Overcast,360,2012-11-16 05:35:00
11:55 PM,66.2,61.0,83,30.20,7.0,North,4.6,-,N/A,,Overcast,10,2012-11-16 05:55:00